Temp
42 42 42 42 42 42 41 39 39 39 39 41 39 40 40 39 38 38 39 40 39 38 38 38 39 39 38 36 37 36 36 38
42 43 42 42 41 40 40 38 37 38 39 38 37 37 37 36 36 36 36 38 37 37 37 36 36 37 35 35 36 35 35 36
42 41 41 41 40 41 40 37 38 38 36 37 37 35 34 34 34 33 34 35 35 36 35 36 36 35 35 35 35 34 34 35
40 38 39 40 40 40 40 39 38 37 36 35 33 32 32 31 31 32 32 32 32 33 34 34 34 34 35 35 35 35 36 36
38 38 40 40 39 40 40 40 38 37 35 32 31 31 31 30 29 29 30 29 30 31 31 33 32 33 34 34 34 35 36 36
37 36 37 37 37 38 37 36 35 34 32 31 31 30 29 28 27 27 28 29 30 30 30 30 32 33 33 33 32 33 35 35
39 38 38 38 37 38 36 34 33 30 28 30 28 28 27 25 26 26 27 27 27 28 28 29 32 36 38 37 33 33 33 34
38 38 37 36 37 35 34 33 26 25 26 26 26 26 28 27 27 27 26 26 26 27 27 28 30 35 37 37 34 33 33 33
37 37 37 35 34 33 31 26 27 26 25 25 26 25 26 25 25 26 26 25 25 25 26 26 28 33 35 36 33 32 32 33
35 36 34 32 30 28 26 26 26 26 26 26 24 24 25 24 25 25 24 24 23 24 23 23 24 30 32 32 30 30 31 33
34 32 31 29 29 25 24 22 24 25 25 24 23 21 21 22 22 23 22 22 23 21 22 22 21 27 29 30 27 26 29 31
29 28 28 27 24 22 22 20 21 20 19 18 17 16 16 16 17 16 16 18 17 17 18 18 19 20 26 28 26 26 27 28
26 26 26 24 20 18 17 19 17 15 13 11 10 10 11 9 10 11 11 10 11 12 13 16 18 21 24 26 28 30 27 27
18 19 21 15 15 13 15 14 12 8 6 6 6 7 7 6 6 5 6 6 7 8 8 10 15 16 21 23 25 27 26 29
13 11 11 12 14 9 11 10 6 3 4 5 4 4 5 7 7 5 5 4 5 5 5 6 8 11 13 15 16 20 21 26
10 11 10 11 9 6 8 6 3 3 4 4 4 4 4 5 5 6 8 8 7 8 9 8 9 12 17 17 15 15 19 22
8 8 7 6 5 5 1 1 2 2 3 3 3 3 4 3 4 11 14 16 17 18 17 14 18 20 21 21 22 22 23 19
5 5 3 3 2 2 2 1 3 1 2 2 2 2 2 3 2 1 7 14 16 17 18 18 19 19 20 21 22 22 23 17
1 -2 -3 -2 -1 2 1 3 3 3 3 2 1 1 2 3 4 4 3 3 5 13 15 17 19 20 20 21 21 15 17 16
-5 -4 -4 -5 -0 2 5 4 2 2 2 2 2 3 4 5 5 6 6 6 6 8 13 14 18 19 20 22 16 15 14 16
MSLP
1020.97 1021.26 1021.38 1021.65 1021.81 1021.76 1021.63 1021.87 1021.56 1021.10 1020.68 1020.31 1020.09 1020.31 1019.92 1018.60 1019.00 1018.98 1018.82 1018.45 1017.95 1017.56 1017.11 1016.78 1016.42 1016.27 1016.49 1016.52 1016.39 1016.45 1016.44 1016.42
1020.87 1021.15 1021.61 1021.63 1021.73 1022.00 1021.84 1021.52 1021.92 1021.62 1020.80 1020.41 1020.69 1020.92 1019.96 1019.60 1019.85 1019.50 1019.15 1019.05 1018.62 1018.07 1017.60 1017.14 1016.86 1016.52 1016.38 1016.26 1015.99 1016.05 1016.11 1015.97
1020.96 1021.23 1021.67 1022.10 1021.56 1021.67 1021.80 1021.34 1021.23 1021.73 1021.82 1020.54 1020.48 1020.28 1020.27 1020.38 1020.61 1020.29 1019.46 1019.01 1018.76 1018.29 1017.77 1017.64 1016.85 1016.46 1016.56 1016.18 1015.59 1015.61 1015.72 1015.61
1021.01 1020.98 1021.06 1021.28 1021.44 1021.27 1020.98 1020.91 1020.93 1021.13 1021.42 1021.22 1020.77 1020.59 1020.86 1020.77 1020.82 1020.72 1019.92 1019.28 1018.77 1018.83 1018.18 1017.44 1016.99 1016.46 1016.31 1016.17 1015.15 1015.08 1015.12 1014.86
1020.58 1020.69 1020.99 1020.89 1021.19 1021.22 1021.17 1020.75 1020.95 1021.03 1021.08 1021.40 1020.77 1020.94 1020.84 1020.77 1020.54 1020.57 1020.01 1019.47 1018.96 1018.59 1018.14 1017.47 1017.16 1016.60 1016.22 1015.47 1014.88 1014.65 1014.45 1014.12
1020.30 1020.70 1020.97 1021.07 1021.11 1021.22 1021.25 1021.19 1021.27 1021.46 1021.49 1021.45 1021.07 1020.92 1020.49 1020.29 1020.08 1020.04 1019.55 1019.10 1018.59 1018.26 1017.74 1017.28 1016.77 1016.32 1015.74 1015.47 1014.69 1014.23 1013.78 1013.41
1019.83 1020.24 1020.58 1020.80 1020.93 1020.91 1021.02 1021.22 1021.38 1021.55 1021.48 1021.38 1021.02 1020.35 1020.25 1020.24 1020.11 1019.60 1019.22 1018.75 1018.18 1017.85 1017.43 1016.61 1016.06 1015.33 1014.96 1014.77 1014.18 1013.44 1013.01 1012.54
1019.92 1020.00 1020.30 1020.61 1020.76 1021.06 1021.16 1021.24 1021.77 1021.79 1021.68 1021.33 1020.90 1020.69 1020.43 1020.05 1019.51 1019.00 1018.77 1018.37 1017.71 1017.03 1016.55 1015.79 1015.07 1014.66 1014.33 1013.88 1013.30 1012.62 1012.10 1011.50
1019.90 1020.05 1020.17 1020.37 1020.69 1021.00 1021.30 1021.56 1021.67 1021.50 1021.24 1020.91 1020.62 1020.33 1019.86 1019.47 1019.05 1018.54 1018.16 1017.54 1016.94 1016.38 1015.88 1015.25 1014.34 1013.93 1013.38 1012.88 1012.34 1011.58 1010.90 1010.40
1019.73 1019.98 1020.38 1020.68 1021.00 1021.27 1021.52 1021.66 1021.58 1021.37 1021.06 1020.75 1020.41 1020.07 1019.62 1019.07 1018.48 1017.98 1017.70 1017.16 1016.57 1015.94 1015.12 1014.58 1013.45 1013.02 1012.67 1012.33 1011.58 1010.54 1009.61 1009.09
1019.70 1020.15 1020.59 1021.07 1021.36 1021.62 1021.73 1021.72 1021.63 1021.42 1021.17 1020.92 1020.70 1020.34 1019.88 1019.27 1018.53 1017.88 1017.38 1016.46 1015.82 1014.91 1014.35 1013.72 1012.82 1011.95 1011.61 1011.40 1010.86 1009.54 1008.46 1007.63
1020.23 1020.79 1021.25 1021.58 1021.88 1022.07 1022.04 1021.99 1021.83 1021.80 1021.63 1021.34 1021.08 1020.73 1020.23 1019.41 1018.81 1018.10 1017.33 1016.45 1015.35 1014.52 1013.51 1012.90 1012.20 1010.95 1010.51 1009.96 1009.53 1008.54 1007.36 1006.34
1020.84 1021.48 1021.94 1022.23 1022.40 1022.36 1022.36 1022.20 1022.18 1022.05 1021.82 1021.58 1021.32 1020.94 1020.26 1019.54 1018.70 1018.04 1017.26 1016.17 1015.02 1014.02 1012.61 1011.75 1011.05 1010.20 1009.23 1008.68 1008.00 1007.10 1006.04 1004.59
1021.63 1021.97 1022.30 1022.54 1022.74 1022.66 1022.42 1022.35 1022.15 1022.10 1021.89 1021.62 1021.08 1020.57 1019.98 1019.23 1018.32 1017.53 1016.77 1015.77 1014.54 1013.50 1012.22 1010.98 1010.49 1009.69 1008.94 1007.83 1006.98 1006.02 1004.81 1003.32
1022.22 1022.49 1022.72 1022.80 1022.95 1023.12 1022.81 1022.63 1022.48 1022.05 1021.57 1021.07 1020.48 1019.81 1019.29 1018.54 1017.71 1016.81 1016.04 1015.02 1014.05 1012.97 1011.67 1010.50 1009.67 1009.02 1008.42 1007.58 1006.95 1005.86 1004.08 1002.36
1022.76 1022.93 1023.02 1023.05 1023.04 1023.06 1022.90 1022.76 1022.43 1021.90 1021.23 1020.53 1019.89 1019.24 1018.45 1017.76 1016.99 1016.00 1015.03 1014.13 1012.56 1011.23 1010.01 1008.75 1007.60 1007.13 1006.42 1005.52 1004.93 1004.42 1003.57 1002.43
1023.12 1023.19 1023.14 1023.22 1023.19 1022.99 1022.82 1022.67 1022.27 1021.48 1020.71 1020.05 1019.43 1018.67 1017.85 1016.81 1015.67 1015.05 1013.57 1012.33 1011.09 1009.77 1008.60 1007.24 1006.17 1005.11 1004.28 1003.46 1002.75 1002.32 1002.04 1001.18
1023.38 1023.39 1023.29 1023.17 1023.03 1022.85 1022.54 1022.26 1021.88 1021.22 1020.39 1019.64 1018.88 1018.08 1017.13 1016.02 1014.85 1013.27 1012.08 1011.12 1009.82 1008.69 1007.44 1006.15 1004.86 1003.79 1002.77 1001.86 1001.15 1000.59 1000.13 999.46
1023.66 1023.56 1023.47 1023.24 1022.80 1022.36 1021.98 1021.68 1021.15 1020.58 1019.95 1019.20 1018.28 1017.41 1016.39 1015.29 1014.00 1012.77 1011.31 1009.71 1008.38 1007.03 1006.24 1004.79 1003.51 1002.36 1001.24 1000.25 999.50 999.10 998.78 998.31
1023.65 1023.43 1023.19 1022.92 1022.34 1021.83 1021.48 1021.04 1020.45 1019.95 1019.19 1018.44 1017.55 1016.59 1015.55 1014.41 1013.15 1011.92 1010.58 1009.19 1007.62 1006.02 1004.43 1003.34 1002.38 1001.27 1000.12 999.04 998.41 997.64 997.14 996.83
Wind_Speed
6 5 4 4 4 6 5 5 5 5 5 7 8 7 6 7 8 9 9 10 9 8 7 8 7 6 6 5 5 7 5 5
4 4 4 4 5 4 5 6 6 7 5 5 5 6 8 7 7 7 7 9 8 7 8 7 7 7 6 7 7 7 7 7
4 4 4 3 3 3 2 4 4 4 5 6 5 7 6 7 7 7 7 8 9 9 6 7 7 6 7 8 6 7 9 9
3 3 3 2 4 4 4 4 3 4 5 5 5 5 5 5 6 8 8 7 6 7 8 10 8 6 7 8 7 8 10 11
2 3 4 4 5 5 6 5 5 5 5 6 6 5 5 5 5 6 7 7 7 7 7 7 7 8 9 8 8 10 11 11
2 1 4 3 3 3 4 5 4 4 5 6 6 6 6 7 6 7 6 7 6 8 8 7 7 7 8 9 8 9 11 11
5 4 5 5 5 5 5 6 3 5 7 8 8 8 6 5 6 6 7 7 7 10 8 10 9 16 20 17 11 11 12 12
5 6 5 4 2 4 5 4 3 4 6 7 7 8 11 9 9 11 10 9 11 11 10 13 13 21 24 22 12 12 13 14
4 5 4 0 2 4 4 4 4 6 7 7 7 9 9 9 10 13 11 13 13 14 14 14 14 25 26 26 15 14 15 15
3 2 4 4 4 3 3 4 5 7 8 7 6 10 12 14 15 15 13 14 15 15 18 16 17 28 28 25 16 16 18 16
4 3 5 5 6 3 5 5 8 9 9 9 10 12 15 16 17 15 15 17 15 19 18 20 21 31 34 29 14 18 15 17
6 5 5 6 5 6 7 8 6 8 10 12 13 13 14 16 15 16 17 18 19 20 20 21 21 24 35 36 19 16 16 15
5 4 5 5 5 8 9 9 9 10 11 12 12 11 12 15 15 16 16 18 19 19 19 16 18 26 30 35 35 31 19 19
3 5 4 3 2 9 11 11 12 12 12 12 12 12 12 13 14 13 13 13 14 14 15 15 13 14 30 34 35 35 24 18
3 3 5 3 5 4 10 11 11 13 13 13 13 14 12 10 11 11 12 13 13 14 15 15 14 14 13 14 15 26 19 22
2 4 7 7 8 6 9 9 11 13 13 13 11 13 13 12 11 12 13 15 15 14 15 15 14 13 25 25 15 13 19 21
2 5 7 7 8 9 6 6 11 13 11 11 12 12 12 13 13 22 29 32 33 35 29 17 30 38 37 36 35 34 34 18
4 5 8 9 10 8 8 7 10 12 14 12 13 12 12 12 13 15 16 30 32 33 34 34 33 35 34 34 33 32 29 16
4 5 6 8 11 10 6 9 11 13 17 12 11 11 12 12 14 13 15 15 15 23 27 30 33 32 31 30 26 13 14 12
5 7 6 6 11 7 9 11 13 12 10 10 10 11 13 12 13 13 14 15 15 15 21 21 27 28 30 28 12 11 10 11
Wind_Direction
67 63 69 57 59 53 66 39 22 19 19 19 15 6 358 28 14 4 350 349 343 337 333 327 315 276 264 256 239 232 236 231
114 99 72 57 57 53 54 56 15 360 5 37 24 358 6 13 357 356 345 343 338 335 330 321 313 300 282 259 249 245 241 236
53 80 61 19 42 69 52 73 54 2 336 17 21 11 11 3 344 337 340 338 334 335 333 318 313 304 291 276 256 246 249 244
160 143 111 50 12 9 8 40 39 14 354 351 4 1 344 346 333 326 326 325 322 320 322 324 318 305 286 275 266 252 250 245
320 27 10 32 12 357 354 3 358 355 346 331 334 321 306 300 291 298 303 298 302 301 294 296 293 297 289 278 274 267 262 252
170 322 298 296 300 326 327 337 339 338 324 305 301 295 295 291 285 280 285 282 280 295 292 283 278 276 281 279 266 263 267 258
176 223 253 257 264 273 288 292 306 321 313 311 312 314 295 263 269 282 285 286 284 285 273 285 285 289 292 288 278 271 267 268
252 228 229 230 279 283 280 292 282 272 280 279 279 283 289 288 291 296 295 291 290 287 281 280 278 283 287 283 276 269 265 263
320 311 277 95 6 343 341 320 292 280 273 271 274 274 279 276 275 286 293 295 293 289 285 284 279 279 280 281 276 268 262 259
262 327 39 25 28 8 319 281 285 287 291 294 297 299 298 293 290 287 287 285 286 285 287 282 280 283 283 282 279 269 264 258
304 52 47 31 30 4 315 312 302 306 314 317 313 305 301 298 297 297 291 286 284 282 280 281 281 281 284 284 275 269 262 259
44 41 37 30 23 331 313 305 317 329 315 311 311 309 303 299 297 296 292 289 284 282 281 279 276 280 282 282 276 267 267 260
29 23 15 17 350 319 312 321 321 313 311 308 303 298 296 293 293 290 289 285 284 283 281 278 278 276 281 283 279 275 266 258
39 336 347 1 353 318 318 321 317 313 306 301 297 295 291 291 292 290 286 283 284 284 286 288 289 287 289 292 292 285 280 273
22 326 308 313 324 298 312 315 311 306 304 304 302 300 293 286 286 288 287 284 284 284 281 279 278 278 280 280 286 292 299 293
342 306 306 320 314 310 308 309 305 304 303 302 300 300 298 289 287 283 278 278 280 275 277 282 280 276 277 276 269 263 274 284
291 298 302 307 304 302 295 294 298 301 305 305 302 297 296 295 290 285 290 293 292 292 290 286 286 292 291 287 283 278 274 268
301 302 304 304 299 298 294 286 296 297 302 300 298 296 295 295 295 296 292 293 294 294 293 292 292 293 291 287 284 279 272 260
288 282 280 285 289 292 287 295 300 301 297 295 294 293 293 293 294 295 297 299 297 296 295 293 294 298 297 294 290 278 269 268
283 278 276 282 289 292 304 305 307 301 295 294 294 294 294 296 297 297 297 296 295 295 296 297 296 295 294 293 285 269 250 247